Weather in Libreville

Gabon     0°24′41″N   9°31′00″E
temp.,
°C
wind,
m/s
gust,
m/s
humid.,
%
clouds,
%
prec.,
mm/h
press.,
hPa
HPBL,
m
24 october, sun
sun2401:00+24ssw129294 1.3 101381
04:00+24sse1192100 1.6 101342
07:00+24ese119176 2.1 101494
10:00+28sse117583 0.3 1015620
13:00+27ssw227899 2.4 1013727
16:00+27sw338033 0.3 1011666
19:00+24wsw24914 0.4 1012161
22:00+24wsw23916 0.0 1013139
25 october, mon
mon2501:00+24ssw229269 0.1 1012108
04:00+24sse2493100 0.3 1012167
07:00+24sse249263 0.6 1013228
10:00+28s337236 0.7 1015864
13:00+28wsw447348 2.9 1011765
16:00+26wsw4679100 1.1 1010487
19:00+25sw3686100 1.1 1012338
22:00+25sw2388100 0.0 1013138
26 october, tue
tue2601:00+25s1289100 0.1 1012104
04:00+24se1194100 3.4 101240
07:00+24sse2494100 9.6 1013169
10:00+24sse3492100 1.7 1014332
13:00+25ssw1189100 2.4 1012276
16:00+25ssw1282100 0.0 1010486
19:00+24sw238991 0.1 1012120
22:00+24s129183 0.0 101390
27 october, wed
wed2701:00+23ese119330 0.1 101243
04:00+23ese229690 0.4 101278
07:00+24se2492100 0.5 1013171
10:00+28sse226997 0.2 1014894
13:00+28wsw2272100 3.3 1011774
16:00+27wsw437645 1.4 1010702
19:00+25wsw3688100 2.4 1012323
22:00+25sw369192 5.7 1013198
28 october, thu
thu2801:00+24s3592100 6.1 1012218
04:00+23sse249588 0.1 1011160
07:00+24sse239299 0.1 1013167
10:00+27sse337365 0.0 1014812
13:00+29ssw336716 0.0 1011898
16:00+28wsw446910 0.1 1009724
19:00+25sw358490 0.2 1011202
22:00+25sw2388100 0.3 1012151